Tracking 31030 objects as of 17-Jul-2025
HD Live streaming from Space Station
objects crossing your sky now

DELTA 1 DEB

Track DELTA 1 DEB now!
10-day predictions


NORAD ID: 9979
Int'l Code: 1973-086GJ
Perigee: 1,425.7 km
Apogee: 2,408.1 km
Inclination: 101.9 °
Period: 125.1 minutes
Semi major axis: 8287 km
RCS: 0.0244 m2 (small)
Launch date: November 6, 1973
Source: United States (US)
Launch site: AIR FORCE WESTERN TEST RANGE (AFWTR)

Note: This is SATELLITE DEBRIS
Your satellite tracking list
Your tracking list is empty




NASA's NSSDC Master Catalog

Two Line Element Set (TLE):
1 09979U 73086GJ  25192.90655620  .00001080  00000-0  16331-1 0  9994
2 09979 101.9203 165.8314 0592672 150.9414 241.9248 11.50636799480778
Source of the keplerian elements: AFSPC